Location: Bernadets
(43.3537°N, 0.3167°E)
Time: 17:32:49
(UTC+00:00)

Okean-O - Pass Details

Date: 05 June 2022
Orbit: 638 x 640 km, 98.1° (Epoch: 27 June)

Event Time Altitude Azimuth Distance (km) Brightness Sun altitude
Rises 20:59:36 0° 218° (SW) 2,931 5.9 -12.4°
Reaches altitude 10° 21:03:30 10° 254° (WSW) 2,030 5.5 -12.9°
Maximum altitude 21:04:48 11° 271° (W) 1,956 5.7 -13.1°
Drops below altitude 10° 21:06:07 10° 288° (WNW) 2,034 6.2 -13.2°
Sets 21:10:04 0° 324° (NW) 2,950 8.1 -13.7°
